Wind_Speed
50 50 51 52 53 54 55 56 57 57 57 57 57 58 60 61 61 62 62 62 62 62 62 62 62 62 63 62 63 63 63 62 62 63 62 62 62 61
51 52 53 54 54 55 56 57 58 58 58 58 59 59 59 60 60 61 62 63 63 63 64 64 65 64 64 65 65 65 65 65 65 65 65 65 65 64
53 54 54 55 55 55 56 56 57 57 57 58 59 59 59 59 59 60 61 63 63 64 65 66 66 66 66 66 67 66 66 67 67 67 67 68 68 67
53 53 54 54 55 55 56 56 56 57 57 57 57 58 59 59 59 59 60 61 62 63 64 65 65 65 65 66 66 67 68 68 69 69 69 70 70 70
53 53 53 53 54 55 55 55 55 56 56 56 56 57 58 59 60 60 59 60 61 61 63 63 63 63 64 64 65 66 67 68 68 68 68 69 69 70
52 52 52 52 53 53 54 54 53 54 54 54 55 55 56 58 59 60 60 60 60 60 61 62 62 62 63 63 64 64 65 65 65 65 66 67 68 69
50 50 51 51 52 52 52 52 53 53 53 54 54 54 55 56 57 59 60 60 60 60 61 62 62 63 63 63 63 63 63 63 64 64 64 65 66 67
48 49 50 51 52 52 52 52 53 53 53 53 54 54 54 55 56 57 58 60 60 61 61 61 62 62 62 62 63 63 62 62 63 63 63 63 64 65
48 49 49 50 51 52 52 53 54 54 53 53 53 53 54 54 55 56 57 59 59 60 61 60 60 60 60 60 60 61 62 62 61 61 61 61 61 62
49 49 49 50 50 51 52 52 53 53 53 53 53 54 54 53 54 55 55 56 56 57 59 59 59 59 59 59 59 59 60 60 60 59 58 58 58 58
49 49 48 49 49 50 51 51 51 52 52 53 53 53 53 54 54 54 54 54 54 55 57 57 57 57 57 57 56 57 57 57 57 57 57 57 57 58
48 48 48 48 49 50 50 50 50 50 51 52 52 51 51 52 54 54 54 54 53 53 54 55 55 54 54 54 54 55 56 56 56 56 55 55 56 57
47 47 48 48 48 48 48 48 49 49 49 50 50 50 51 51 52 53 53 53 53 53 52 53 52 52 52 51 52 53 54 54 53 54 54 54 54 56
45 46 47 47 48 48 47 47 48 49 49 49 49 50 50 50 50 51 52 52 51 51 50 50 49 49 50 50 50 50 50 51 52 52 53 53 53 53
46 46 47 47 47 47 47 46 46 47 48 48 48 49 49 49 48 49 49 49 48 48 47 47 47 47 47 47 47 47 47 48 49 50 51 51 52 52
46 47 47 47 47 46 46 46 46 46 46 47 47 47 47 46 46 46 46 46 46 45 45 45 44 44 44 45 45 45 45 45 46 47 48 49 50 50
45 45 45 45 46 46 46 46 46 46 46 46 45 45 45 44 43 43 43 43 43 42 43 42 42 42 42 42 42 43 44 44 44 45 46 46 47 48
44 44 44 44 44 44 44 44 45 45 45 44 44 44 43 43 42 41 41 40 40 40 40 41 41 41 41 40 41 41 42 42 42 43 44 44 44 45
42 42 42 42 42 42 42 43 43 42 42 42 42 42 42 41 41 40 40 39 39 39 39 39 40 40 40 40 40 41 41 41 41 41 42 41 41 42
41 40 41 41 41 41 41 41 40 40 40 40 40 40 40 40 40 40 40 39 38 38 39 39 39 39 40 39 38 39 40 40 39 39 40 40 40 41
40 40 40 40 40 40 40 39 39 39 39 39 38 38 38 38 38 38 38 39 38 38 37 38 38 38 38 38 37 36 38 40 39 39 39 39 39 38
39 39 39 39 39 39 39 38 38 39 38 38 37 37 36 36 36 36 36 37 37 37 37 37 37 37 37 36 35 35 35 37 37 37 37 37 37 36
38 38 38 38 37 37 36 36 36 36 36 36 36 35 35 35 35 35 35 35 36 36 36 36 36 35 35 35 34 34 34 34 35 35 34 35 35 34
Wind_Direction
268 269 269 269 269 270 270 269 269 268 267 266 266 265 264 264 265 264 264 262 262 262 262 262 262 262 261 261 261 261 260 259 258 258 257 257 257 258
270 270 270 270 270 270 271 270 270 269 269 268 267 266 266 266 266 266 265 263 263 262 262 262 262 262 262 261 261 260 260 260 260 259 258 258 258 257
271 271 271 271 271 271 271 271 271 270 270 270 268 267 267 266 265 266 266 264 263 263 262 263 263 263 263 262 262 261 261 261 261 260 259 259 259 258
272 272 272 272 272 272 272 272 272 272 271 270 269 268 268 268 267 267 266 265 264 264 264 264 264 263 263 263 262 262 261 261 261 260 260 259 259 258
273 273 272 273 273 273 272 273 271 271 271 270 269 269 269 269 268 268 267 266 265 266 266 265 265 264 264 263 263 263 262 261 261 260 259 259 258 257
274 274 273 273 273 273 273 273 272 272 271 270 270 270 270 269 269 268 268 267 266 266 267 266 266 265 265 264 264 263 263 262 261 260 259 259 258 257
275 274 274 273 274 274 275 274 272 272 271 270 270 270 269 269 269 269 269 267 267 267 267 267 266 265 265 265 264 264 263 262 261 261 260 260 259 258
276 276 275 275 275 274 275 274 273 273 271 270 270 270 270 271 270 270 270 269 268 268 267 267 267 266 266 265 264 263 263 262 261 261 261 260 259 258
277 277 277 276 276 275 275 274 273 272 272 271 271 271 271 271 271 271 271 270 270 269 268 267 267 267 266 265 264 264 263 262 261 261 261 260 260 259
278 278 278 278 278 277 276 275 273 273 272 272 272 272 272 272 272 272 272 271 270 269 269 268 267 266 266 265 264 263 263 262 261 260 260 260 260 259
278 279 279 279 279 278 277 276 274 273 273 273 272 273 273 272 272 272 271 272 271 270 270 270 269 267 265 264 263 263 262 262 261 261 261 260 259 259
278 278 279 280 281 280 279 277 275 274 273 273 272 272 273 272 272 272 272 272 271 271 270 270 269 268 266 264 263 262 262 262 262 262 261 260 260 260
278 279 280 281 281 281 280 279 276 274 274 273 272 273 274 274 273 273 273 273 272 271 270 270 269 268 267 265 263 263 263 262 262 262 262 261 260 260
279 280 281 282 281 281 281 280 279 277 275 275 275 275 275 275 274 274 274 274 273 272 272 271 270 269 268 267 266 264 263 263 263 263 263 261 260 260
279 280 281 282 282 282 282 281 280 279 277 276 276 276 275 275 275 274 274 273 272 272 271 270 270 270 269 269 268 265 264 263 263 263 262 262 261 260
280 280 280 281 281 282 282 281 281 280 278 277 276 276 275 274 274 274 273 272 271 270 270 270 270 270 270 269 269 266 264 264 264 264 262 262 261 261
281 281 281 281 281 282 281 281 281 280 279 277 276 275 275 274 274 273 272 271 271 270 269 269 269 269 270 270 268 267 266 265 265 264 263 262 261 260
282 281 282 282 282 282 282 281 281 281 279 277 276 274 274 273 273 273 272 271 271 270 269 268 268 269 269 269 269 269 267 266 264 264 263 261 260 259
282 283 283 283 283 283 283 282 282 281 279 278 277 275 273 272 272 272 272 272 271 270 269 269 269 269 268 268 269 270 269 267 265 264 263 261 260 258
283 284 284 284 284 284 284 284 283 282 281 279 277 275 273 272 271 272 272 272 271 271 270 269 269 270 270 269 268 267 268 269 268 266 264 262 260 258
283 284 284 284 284 285 284 284 283 282 282 281 279 276 273 272 272 271 272 272 271 271 271 270 270 270 270 269 268 266 266 268 269 268 266 263 261 259
284 284 284 284 285 285 284 284 283 283 282 281 279 276 274 273 272 272 273 273 272 271 271 270 269 269 269 268 267 266 266 267 268 268 267 265 262 259
284 285 285 286 286 285 285 284 284 284 283 281 279 276 273 272 272 272 272 273 272 271 270 269 269 269 269 268 266 266 266 265 265 265 265 265 264 262
Height
5622 5622 5621 5620 5619 5619 5618 5617 5617 5617 5617 5616 5615 5615 5614 5615 5615 5616 5617 5618 5619 5621 5622 5623 5625 5626 5628 5629 5630 5632 5634 5636 5638 5640 5643 5645 5648 5650
5608 5607 5606 5605 5604 5603 5602 5601 5600 5599 5600 5600 5599 5598 5598 5598 5598 5598 5599 5600 5601 5603 5604 5605 5606 5608 5609 5611 5612 5613 5615 5617 5619 5621 5624 5626 5629 5632
5593 5592 5590 5589 5588 5587 5585 5584 5583 5582 5583 5583 5582 5581 5580 5580 5581 5581 5581 5582 5583 5584 5585 5586 5587 5588 5589 5591 5593 5594 5596 5597 5599 5601 5603 5606 5609 5612
5578 5576 5575 5573 5572 5571 5569 5568 5566 5566 5565 5566 5565 5564 5563 5563 5563 5564 5564 5564 5565 5565 5566 5566 5567 5569 5570 5571 5572 5574 5575 5577 5579 5581 5583 5587 5589 5590
5562 5561 5559 5558 5556 5554 5553 5552 5550 5549 5548 5549 5548 5547 5547 5546 5546 5546 5546 5546 5547 5547 5547 5548 5548 5549 5550 5551 5552 5553 5555 5557 5559 5560 5561 5563 5566 5569
5547 5546 5544 5542 5541 5539 5538 5536 5535 5534 5533 5532 5532 5531 5530 5529 5528 5529 5529 5529 5529 5529 5529 5529 5530 5530 5531 5532 5534 5534 5535 5536 5537 5539 5540 5542 5544 5547
5533 5531 5529 5528 5526 5524 5523 5521 5519 5518 5517 5517 5516 5516 5515 5513 5512 5512 5512 5512 5511 5510 5510 5511 5511 5512 5512 5513 5513 5514 5515 5516 5518 5519 5520 5521 5523 5525
5519 5517 5515 5513 5512 5510 5508 5506 5504 5503 5502 5501 5501 5500 5499 5497 5496 5495 5494 5495 5496 5495 5492 5493 5492 5493 5493 5494 5494 5495 5496 5497 5498 5499 5501 5501 5503 5505
5505 5503 5501 5499 5497 5495 5493 5491 5489 5487 5486 5486 5485 5484 5483 5482 5481 5480 5477 5476 5477 5475 5473 5474 5474 5474 5474 5475 5475 5476 5476 5478 5480 5481 5482 5483 5484 5485
5491 5489 5487 5484 5482 5480 5478 5476 5474 5473 5471 5470 5470 5468 5466 5464 5463 5462 5460 5460 5459 5457 5455 5456 5456 5456 5456 5456 5457 5457 5458 5460 5461 5463 5464 5465 5467 5468
5477 5475 5473 5470 5468 5465 5464 5462 5460 5458 5456 5454 5453 5451 5450 5448 5446 5445 5444 5443 5443 5442 5439 5438 5439 5438 5439 5439 5439 5439 5440 5442 5443 5445 5446 5448 5449 5451
5464 5461 5459 5456 5453 5450 5448 5447 5445 5443 5441 5439 5438 5436 5434 5433 5430 5429 5428 5427 5426 5426 5424 5422 5421 5420 5422 5423 5422 5423 5423 5425 5426 5428 5429 5431 5432 5433
5450 5447 5445 5442 5439 5436 5434 5432 5430 5428 5426 5424 5422 5421 5419 5418 5416 5414 5412 5410 5410 5409 5408 5407 5406 5405 5405 5407 5407 5407 5407 5408 5410 5411 5413 5414 5415 5416
5436 5433 5431 5428 5425 5422 5419 5417 5415 5412 5411 5409 5408 5406 5404 5403 5401 5399 5397 5395 5394 5394 5393 5391 5391 5391 5390 5391 5392 5392 5392 5393 5394 5395 5396 5398 5399 5400
5422 5419 5416 5413 5410 5408 5405 5403 5400 5398 5396 5395 5393 5391 5390 5388 5386 5384 5383 5381 5380 5379 5378 5377 5376 5376 5376 5376 5377 5377 5378 5379 5379 5380 5381 5382 5383 5384
5408 5405 5402 5399 5396 5394 5391 5389 5386 5384 5382 5380 5379 5377 5375 5373 5371 5370 5368 5367 5366 5365 5364 5363 5362 5362 5362 5362 5363 5363 5363 5364 5365 5365 5365 5366 5368 5369
5394 5391 5389 5386 5383 5380 5378 5375 5372 5370 5368 5366 5364 5363 5361 5359 5358 5356 5355 5354 5353 5352 5352 5351 5349 5349 5349 5349 5350 5350 5350 5350 5351 5351 5351 5352 5354 5355
5380 5378 5375 5373 5370 5367 5364 5361 5359 5356 5354 5352 5350 5349 5347 5346 5345 5343 5342 5341 5340 5340 5339 5338 5337 5337 5338 5338 5338 5337 5337 5337 5337 5337 5337 5339 5341 5341
5367 5365 5362 5360 5357 5354 5351 5349 5346 5343 5341 5339 5337 5335 5334 5333 5332 5331 5330 5329 5328 5328 5327 5326 5325 5325 5326 5327 5327 5324 5324 5324 5324 5325 5325 5326 5328 5329
5355 5352 5350 5347 5344 5342 5339 5336 5333 5331 5328 5326 5324 5323 5321 5320 5320 5319 5318 5317 5317 5316 5315 5315 5314 5313 5313 5314 5315 5314 5312 5311 5312 5313 5313 5314 5316 5316
5342 5340 5337 5335 5332 5329 5326 5324 5321 5319 5316 5314 5312 5311 5309 5308 5308 5307 5306 5305 5305 5304 5304 5303 5302 5302 5301 5301 5303 5303 5301 5300 5300 5300 5301 5302 5303 5305
5330 5328 5325 5322 5320 5317 5314 5312 5309 5307 5304 5302 5300 5299 5298 5297 5296 5295 5294 5294 5293 5293 5292 5292 5291 5290 5290 5290 5291 5291 5291 5289 5289 5289 5289 5290 5290 5293
5318 5315 5313 5310 5307 5305 5302 5300 5297 5295 5292 5290 5289 5287 5286 5285 5285 5284 5283 5282 5282 5281 5281 5281 5280 5279 5279 5279 5279 5279 5279 5279 5278 5278 5279 5279 5280 5281